Weather Roundup
Issued by NWS

Home | Current Version | Previous Version | Text Only | Print | Product List | Glossary On
Versions: 1 2 3 4 5 6 7 8 9 10 11 12 13 14 15 16 17 18 19 20 21 22 23 24 25 26 27 28 29 30 31 32 33 34 35 36 37 38 39 40 41 42 43 44 45 46 47 48 49 50
000
NZUS93 KARX 190210
HRRWXR

CURRENT HOURLY OBSERVATIONS ACROSS
MUCH OF THE UPPER MISSISSIPPI VALLEY
NATIONAL WEATHER SERVICE LA CROSSE WI
800 PM CST THU DEC 18 2014


...SOUTHEAST MINNESOTA...


CITY           SKY/WX    TMP DP  RH WIND       PRES   REMARKS
ROCHESTER      CLOUDY    21  15  78 CALM      30.24S
ROCHESTER/MAYO CLOUDY    22  15  74 SE3       30.25S
WINONA         CLOUDY    27  21  80 CALM      30.29S
AUSTIN         CLOUDY    19  18  93 E3        30.24F
ALBERT LEA     CLOUDY    21  19  93 E3        30.24S
DODGE CENTER   CLOUDY    19  18  93 CALM      30.24S
PRESTON        CLOUDY    21  16  81 CALM      30.25S
OWATONNA       CLOUDY    19  16  86 SE5       30.24S WCI  13
FARIBAULT      PTCLDY    18  14  86 CALM      30.26S
$$

...ELSEWHERE IN MINNESOTA...


CITY           SKY/WX    TMP DP  RH WIND       PRES   REMARKS
MINNEAPOLIS    CLOUDY    20  14  77 VRB3      30.28R
INTNL FALLS    CLOUDY    20  16  84 SE3       30.21F
DULUTH         CLOUDY    24  17  74 SE8       30.20F WCI  15
RED WING       CLOUDY    23  18  80 CALM      30.27S
REDWOOD FALLS  CLOUDY    22  17  81 SE9       30.23S WCI  12
MANKATO        CLOUDY    21  14  73 SE6       30.25S WCI  14
WORTHINGTON    CLOUDY    25  21  86 S6        30.19S WCI  18
FAIRMONT       CLOUDY    23  18  80 SE5       30.23S WCI  17
$$

...SOUTHWEST WISCONSIN...


CITY           SKY/WX    TMP DP  RH WIND       PRES   REMARKS
LA CROSSE      CLOUDY    26  18  71 CALM      30.28S
PRAIRIE DU CHI CLOUDY    27  18  70 CALM      30.28S
BOSCOBEL       CLOUDY    27  18  69 CALM      30.29R
LONE ROCK      NOT AVBL
PLATTEVILLE    CLOUDY    25  19  79 CALM      30.26S
FORT MC COY    CLOUDY    25  19  80 CALM      30.28S
CAMP DOUGLAS   CLOUDY    25  24  96 CALM      30.26S
VIROQUA        CLOUDY    23  19  86 CALM      30.24S
WIS DELLS      CLOUDY    25  20  81 CALM      30.25S
$$

...ELSEWHERE IN WISCONSIN...


CITY           SKY/WX    TMP DP  RH WIND       PRES   REMARKS
MILWAUKEE      FLURRIES  29  22  75 N6        30.25S WCI  23
MADISON        FLURRIES  26  22  84 NE5       30.25S WCI  20
GREEN BAY      CLEAR     20  18  92 SW3       30.27R
EAU CLAIRE     CLOUDY    23  18  81 S5        30.26F WCI  17
BLACK RVR FLS  CLOUDY    25  20  80 CALM      30.26F
MEDFORD        CLOUDY    21  18  86 W3        30.22S
WAUSAU         CLEAR     19  16  88 CALM      30.23S
WIS RAPIDS     PTCLDY    22  18  85 CALM      30.26F
MARSHFIELD     CLOUDY    25  19  78 CALM      30.23F
RICE LAKE      CLOUDY    23  20  89 SE3       30.27S
$$

...NORTHEAST IOWA...


CITY           SKY/WX    TMP DP  RH WIND       PRES   REMARKS
DECORAH        CLOUDY    23  18  80 CALM      30.25S
MASON CITY     CLOUDY    23  18  81 SE3       30.26S
CHARLES CITY   CLOUDY    23  18  80 CALM      30.26S
OELWEIN        PTCLDY    21  18  86 N3        30.26S
$$

...ELSEWHERE IN IOWA...


CITY           SKY/WX    TMP DP  RH WIND       PRES   REMARKS
DES MOINES     CLOUDY    29  22  75 SE3       30.26S
IOWA CITY      CLOUDY    27  19  72 CALM      30.30R
FORT DODGE     CLOUDY    27  19  74 SE3       30.24S
$$

...NORTHERN ILLINOIS...


CITY           SKY/WX    TMP DP  RH WIND       PRES   REMARKS
CHICAGO-OHARE  CLOUDY    28  19  69 NW6       30.24S WCI  22
CHICAGO-MIDWAY CLOUDY    31  20  63 N3        30.26R
MOLINE         CLOUDY    26  18  71 N5        30.28S WCI  20
ROCKFORD       CLOUDY    26  18  71 W5        30.28S WCI  20
PEORIA         CLOUDY    26  19  74 CALM      30.28S
$$

NOTE: "FAIR" INDICATES FEW OR NO CLOUDS BELOW 12,000 FEET WITH NO
SIGNIFICANT WEATHER AND/OR OBSTRUCTIONS TO VISIBILITY. WIND
SPEEDS ARE IN MILES-PER-HOUR.



USA.gov is the U.S. government's official web portal to all federal, state and local government web resources and services.